CW1492 Weather Reports


Display with metric or nautical units.
time (UTC)temp
F
wind
direction
speed
MPH
gust
MPH
rain 1hr
in
rain 24hr
in
rain mn
in
humidity
%
barometer
mb
20260906003344 66 72 4.0 9.0 0.00 0.00 0.00 66 1014.1
20260906003321 66 341 0.0 1.0 0.00 0.00 0.00 85 1013.0
20260906001902 65 341 0.0 1.0 0.00 0.00 0.00 84 1012.8
20260906001848 66 263 0.0 1.0 0.00 0.00 0.00 64 1013.9
20260906000440 66 263 0.0 1.0 0.00 0.00 0.00 62 1014.0
20260906000326 66 341 0.0 0.0 0.00 0.00 0.00 83 1012.7
20260905234843 67 349 1.0 3.0 0.00 0.00 0.00 62 1013.8
20260905233330 67 354 2.0 5.0 0.00 0.00 0.00 62 1013.6
20260905233322 67 340 0.0 1.0 0.00 0.00 0.00 81 1012.4
20260905231855 68 338 0.0 1.0 0.00 0.00 0.00 61 1013.7
20260905231827 67 346 0.0 0.0 0.00 0.00 0.00 81 1012.3
20260905230355 68 346 0.0 1.0 0.00 0.00 0.00 78 1012.1
20260905230333 68 329 0.0 2.0 0.00 0.00 0.00 61 1013.5
20260905224836 69 19 0.0 1.0 0.00 0.00 0.00 59 1013.4
20260905224814 69 346 0.0 1.0 0.00 0.00 0.00 76 1012.1
20260905223327 69 19 0.0 2.0 0.00 0.00 0.00 58 1013.4
20260905223317 69 313 1.0 2.0 0.00 0.00 0.00 75 1012.0
20260905221927 70 321 2.0 3.0 0.00 0.00 0.00 72 1011.9
20260905221919 69 19 1.0 5.0 0.00 0.00 0.00 57 1013.3
20260905221845 70 321 2.0 3.0 0.00 0.00 0.00 72 1011.9
20260905220343 69 7 2.0 3.0 0.00 0.00 0.00 56 1013.2
20260905220332 71 312 1.0 2.0 0.00 0.00 0.00 69 1011.9
20260905214848 71 299 1.0 5.0 0.00 0.00 0.00 69 1011.7
20260905214842 69 353 3.0 6.0 0.00 0.00 0.00 55 1013.1
20260905213414 70 339 2.0 5.0 0.00 0.00 0.00 55 1012.9
20260905213325 71 322 1.0 4.0 0.00 0.00 0.00 70 1011.5
20260905211842 71 212 1.0 8.0 0.00 0.00 0.00 53 1012.6
20260905211827 72 297 1.0 5.0 0.00 0.00 0.00 68 1011.2
20260905210432 72 8 3.0 9.0 0.00 0.00 0.00 52 1012.6
20260905210315 72 325 1.0 3.0 0.00 0.00 0.00 68 1011.1
20260905204838 73 332 4.0 8.0 0.00 0.00 0.00 50 1012.5
20260905204811 73 355 1.0 5.0 0.00 0.00 0.00 66 1011.0
20260905203425 75 255 3.0 9.0 0.00 0.00 0.00 62 1010.7
20260905203405 74 262 8.0 14.0 0.00 0.00 0.00 49 1012.3
20260905201831 75 339 5.0 12.0 0.00 0.00 0.00 46 1012.2
20260905201820 75 321 3.0 6.0 0.00 0.00 0.00 61 1010.6
20260905200330 75 343 7.0 14.0 0.00 0.00 0.00 46 1012.1
20260905200326 74 58 2.0 9.0 0.00 0.00 0.00 64 1010.5
20260905194852 75 297 4.0 14.0 0.00 0.00 0.00 50 1012.0
20260905194824 75 119 2.0 8.0 0.00 0.00 0.00 63 1010.5
20260905193336 75 308 3.0 11.0 0.00 0.00 0.00 50 1012.1
20260905193330 75 92 2.0 4.0 0.00 0.00 0.00 64 1010.6
20260905191907 74 307 4.0 12.0 0.00 0.00 0.00 50 1012.1
20260905191828 74 302 3.0 5.0 0.00 0.00 0.00 63 1010.6
20260905190356 74 283 5.0 13.0 0.00 0.00 0.00 53 1012.2
20260905190335 74 316 3.0 9.0 0.00 0.00 0.00 64 1010.6
20260905184907 72 353 7.0 12.0 0.00 0.00 0.00 52 1012.2
20260905184829 75 355 2.0 8.0 0.00 0.00 0.00 66 1010.5
20260905183357 73 317 2.0 5.0 0.00 0.00 0.00 70 1010.4
20260905183354 74 297 6.0 12.0 0.00 0.00 0.00 51 1012.1
20260905181857 73 328 7.0 14.0 0.00 0.00 0.00 52 1012.1
20260905181831 74 284 2.0 7.0 0.00 0.00 0.00 65 1010.4
20260905180402 73 81 2.0 6.0 0.00 0.00 0.00 68 1010.5
20260905174852 74 303 6.0 12.0 0.00 0.00 0.00 48 1012.1
20260905174819 73 306 3.0 9.0 0.00 0.00 0.00 66 1010.6
20260905173354 74 240 5.0 9.0 0.00 0.00 0.00 52 1012.1
20260905173319 74 344 3.0 13.0 0.00 0.00 0.00 65 1010.5
20260905171843 73 334 4.0 11.0 0.00 0.00 0.00 51 1012.1
20260905171823 73 305 2.0 6.0 0.00 0.00 0.00 66 1010.4
20260905170347 75 34 3.0 11.0 0.00 0.00 0.00 65 1010.4
20260905170343 73 21 4.0 11.0 0.00 0.00 0.00 54 1012.1
20260905164851 73 261 3.0 16.0 0.00 0.00 0.00 54 1012.1
20260905164826 74 355 3.0 9.0 0.00 0.00 0.00 66 1010.5
20260905163413 73 52 3.0 6.0 0.00 0.00 0.00 66 1010.6
20260905163336 74 277 6.0 11.0 0.00 0.00 0.00 54 1012.0
20260905161926 73 360 2.0 6.0 0.00 0.00 0.00 68 1010.6
20260905161910 73 290 3.0 14.0 0.00 0.00 0.00 61 1012.2
20260905161827 73 290 3.0 14.0 0.00 0.00 0.00 61 1012.2
20260905160326 72 353 4.0 14.0 0.00 0.00 0.00 61 1012.4
20260905154827 71 264 4.0 10.0 0.00 0.00 0.00 66 1012.4
20260905154824 72 298 2.0 4.0 0.00 0.00 0.00 69 1011.0
20260905153428 71 327 1.0 9.0 0.00 0.00 0.00 69 1011.0
20260905153405 69 7 2.0 11.0 0.00 0.00 0.00 66 1012.6
20260905151847 71 318 2.0 11.0 0.00 0.00 0.00 66 1012.5
20260905151826 71 315 2.0 6.0 0.00 0.00 0.00 72 1011.2
20260905150430 70 298 1.0 4.0 0.00 0.00 0.00 77 1011.2
20260905150350 70 62 4.0 12.0 0.00 0.00 0.00 68 1012.5
20260905144906 69 320 4.0 8.0 0.00 0.00 0.00 78 1011.3
20260905144850 70 2 4.0 11.0 0.00 0.00 0.00 69 1012.6
20260905143346 69 351 3.0 9.0 0.00 0.00 0.00 73 1012.6
20260905143330 69 10 3.0 9.0 0.00 0.00 0.00 78 1011.3
20260905141924 68 338 3.0 11.0 0.00 0.00 0.00 76 1012.7
20260905141913 69 40 3.0 8.0 0.00 0.00 0.00 80 1011.4
20260905140421 69 298 2.0 7.0 0.00 0.00 0.00 80 1011.5
20260905140408 66 5 4.0 7.0 0.00 0.00 0.00 81 1012.9
20260905134847 66 142 1.0 3.0 0.00 0.00 0.00 85 1011.5
20260905134826 64 325 3.0 7.0 0.00 0.00 0.00 85 1012.9
20260905133351 62 270 2.0 3.0 0.00 0.00 0.00 89 1012.8
20260905133322 64 331 1.0 4.0 0.00 0.00 0.00 87 1011.4
20260905131856 60 307 0.0 1.0 0.00 0.00 0.00 90 1012.8
20260905131816 63 355 1.0 3.0 0.00 0.00 0.00 92 1011.4
20260905130335 60 295 2.0 3.0 0.00 0.00 0.00 89 1012.8
20260905130320 61 329 0.0 2.0 0.00 0.00 0.00 94 1011.3
20260905124845 60 90 0.0 2.0 0.00 0.00 0.00 96 1011.2
20260905124842 59 317 1.0 3.0 0.00 0.00 0.00 89 1012.7
20260905123436 59 95 0.0 0.0 0.00 0.00 0.00 90 1012.7
20260905123348 60 27 0.0 3.0 0.00 0.00 0.00 97 1011.2
20260905121914 59 328 0.0 1.0 0.00 0.00 0.00 97 1011.1
20260905121836 58 95 0.0 0.0 0.00 0.00 0.00 90 1012.5
20260905120340 58 95 0.0 0.0 0.00 0.00 0.00 89 1012.5
20260905120336 59 328 1.0 2.0 0.00 0.00 0.00 98 1010.9
20260905114911 57 95 0.0 0.0 0.00 0.00 0.00 89 1012.3
20260905114858 58 328 1.0 1.0 0.00 0.00 0.00 98 1010.8
20260905114828 57 95 0.0 0.0 0.00 0.00 0.00 89 1012.3
20260905113341 57 328 1.0 2.0 0.00 0.00 0.00 98 1010.8
20260905111843 57 95 0.0 0.0 0.00 0.00 0.00 83 1012.2
20260905111840 56 328 0.0 0.0 0.00 0.00 0.00 98 1010.7
20260905110403 56 328 0.0 1.0 0.00 0.00 0.00 97 1010.6
20260905110328 57 95 0.0 0.0 0.00 0.00 0.00 83 1012.1
20260905104830 58 95 0.0 0.0 0.00 0.00 0.00 83 1012.0
20260905104818 56 328 1.0 1.0 0.00 0.00 0.00 97 1010.5
20260905103339 58 95 0.0 0.0 0.00 0.00 0.00 83 1011.8
20260905103326 56 328 1.0 2.0 0.00 0.00 0.00 96 1010.4
20260905101930 58 46 0.0 0.0 0.00 0.00 0.00 82 1011.7
20260905101825 56 328 1.0 2.0 0.00 0.00 0.00 97 1010.1
20260905100331 59 46 0.0 2.0 0.00 0.00 0.00 83 1011.6
20260905100327 57 328 1.0 2.0 0.00 0.00 0.00 96 1010.2
20260905094840 59 46 2.0 3.0 0.00 0.01 0.00 84 1011.6
20260905094816 57 328 1.0 2.0 0.00 0.00 0.00 96 1010.1
20260905093351 58 14 1.0 2.0 0.00 0.01 0.00 84 1011.4
20260905093340 57 328 0.0 1.0 0.00 0.00 0.00 96 1010.0
20260905091917 58 263 0.0 1.0 0.00 0.01 0.00 79 1011.4
20260905091822 58 328 1.0 2.0 0.00 0.00 0.00 96 1009.9
20260905090419 59 263 1.0 3.0 0.00 0.01 0.00 72 1011.3
20260905090348 58 328 0.0 0.0 0.00 0.00 0.00 96 1009.9
20260905084854 57 328 1.0 2.0 0.00 0.00 0.00 96 1009.8
20260905084838 60 333 0.0 3.0 0.00 0.01 0.00 72 1011.3
20260905083406 60 343 0.0 0.0 0.00 0.01 0.00 70 1011.3
20260905083331 58 328 1.0 2.0 0.00 0.00 0.00 96 1010.0
20260905081856 58 328 1.0 2.0 0.00 0.00 0.00 96 1010.0
20260905081828 61 343 0.0 3.0 0.00 0.01 0.00 70 1011.4
20260905080422 61 47 2.0 5.0 0.00 0.01 0.00 70 1011.3
20260905080336 58 328 1.0 2.0 0.00 0.00 0.00 95 1010.1
20260905074931 62 310 1.0 5.0 0.00 0.01 0.00 68 1011.3
20260905074834 58 328 2.0 3.0 0.00 0.00 0.00 95 1010.0
20260905073329 59 328 2.0 2.0 0.00 0.00 0.00 95 1010.1
20260905071859 63 1 1.0 4.0 0.00 0.01 0.00 67 1011.6
20260905070357 63 2 0.0 1.0 0.00 0.01 0.00 66 1011.6
20260905070354 60 328 1.0 2.0 0.00 0.00 0.00 94 1010.2
20260905064848 60 328 1.0 2.0 0.00 0.00 0.00 93 1010.4
20260905064843 64 347 0.0 2.0 0.00 0.01 0.00 66 1011.8
20260905063449 64 25 3.0 4.0 0.00 0.01 0.00 66 1011.8
20260905063327 61 328 1.0 2.0 0.00 0.00 0.00 92 1010.4
20260905061852 64 25 3.0 5.0 0.00 0.01 0.00 66 1011.9
20260905061846 62 328 1.0 2.0 0.00 0.00 0.00 90 1010.5
20260905060359 63 343 1.0 8.0 0.00 0.01 0.00 67 1011.9
20260905060330 63 328 1.0 2.0 0.00 0.00 0.00 89 1010.5
20260905054858 62 73 2.0 3.0 0.00 0.01 0.00 70 1012.0
20260905054850 63 347 1.0 1.0 0.00 0.00 0.00 89 1010.5
20260905053334 63 338 0.0 2.0 0.00 0.00 0.00 89 1010.5
20260905053326 63 101 3.0 4.0 0.00 0.01 0.00 69 1012.0
20260905051909 63 95 2.0 3.0 0.00 0.01 0.00 69 1012.2
20260905051854 63 338 1.0 2.0 0.00 0.00 0.00 89 1010.6
20260905050422 63 355 1.0 2.0 0.00 0.00 0.00 89 1010.7
20260905050418 64 57 1.0 2.0 0.00 0.01 0.00 70 1012.3
20260905050336 64 57 1.0 2.0 0.00 0.01 0.00 70 1012.3
20260905044911 63 71 1.0 3.0 0.00 0.01 0.00 70 1012.3
20260905044831 62 355 1.0 2.0 0.00 0.00 0.00 93 1010.8
20260905043354 63 3 2.0 3.0 0.00 0.01 0.00 71 1012.3
20260905043331 61 355 1.0 2.0 0.00 0.00 0.00 93 1010.7
20260905041844 61 355 0.0 1.0 0.00 0.00 0.00 93 1010.6
20260905041830 63 41 1.0 3.0 0.00 0.01 0.00 70 1012.2
20260905040347 61 355 0.0 2.0 0.00 0.00 0.00 92 1010.5
20260905040340 63 40 1.0 2.0 0.00 0.01 0.00 70 1012.2
20260905034932 63 43 2.0 3.0 0.00 0.01 0.01 70 1012.2
20260905034850 63 43 2.0 3.0 0.00 0.01 0.01 70 1012.2
20260905034847 61 355 0.0 0.0 0.00 0.00 0.00 92 1010.7
20260905033423 62 70 2.0 2.0 0.00 0.01 0.01 70 1012.3
20260905033315 62 355 0.0 0.0 0.00 0.00 0.00 91 1010.7
20260905031842 63 70 1.0 2.0 0.00 0.01 0.01 69 1012.4
20260905031811 63 355 0.0 0.0 0.00 0.00 0.00 90 1010.7
20260905030348 64 40 1.0 3.0 0.00 0.01 0.01 69 1012.2
20260905030345 64 360 0.0 0.0 0.00 0.00 0.00 88 1010.6
20260905024859 64 75 1.0 3.0 0.00 0.01 0.01 70 1012.2
20260905024844 65 323 0.0 1.0 0.00 0.00 0.00 86 1010.6
20260905023335 65 319 1.0 2.0 0.00 0.00 0.00 86 1010.7
20260905023330 64 74 0.0 2.0 0.00 0.01 0.01 69 1012.2
20260905021855 64 68 0.0 1.0 0.00 0.01 0.01 67 1012.4
20260905021834 63 325 2.0 3.0 0.00 0.00 0.00 89 1010.8
20260905020336 65 68 1.0 2.0 0.00 0.01 0.01 67 1012.5
20260905020320 63 325 1.0 2.0 0.00 0.00 0.00 90 1011.0
20260905014932 65 52 2.0 3.0 0.00 0.01 0.01 67 1012.5
20260905014812 63 325 1.0 2.0 0.00 0.00 0.00 90 1011.0
20260905013403 65 355 1.0 2.0 0.00 0.01 0.01 68 1012.6
20260905013319 64 325 1.0 2.0 0.00 0.00 0.00 88 1011.0
20260905011851 66 355 0.0 0.0 0.00 0.01 0.01 64 1012.6
20260905011843 65 325 1.0 2.0 0.00 0.00 0.00 85 1011.0
20260905010417 66 333 0.0 1.0 0.00 0.00 0.00 85 1011.0
20260905010351 68 355 0.0 1.0 0.00 0.01 0.01 61 1012.5
20260905004854 69 1 2.0 3.0 0.00 0.01 0.01 59 1012.4
20260905004812 66 326 1.0 2.0 0.00 0.00 0.00 84 1010.9